Weather History for TNCB - November, 2011

Change the Weather History Date:

Thursday, November 24, 2011

  Actual Average Record
Temperature  
Mean Temperature 82 °F -  
Max Temperature 87 °F 85 °F 91 °F (2006)
Min Temperature 76 °F 77 °F 73 °F (2010)
Cooling Degree Days 16    
Growing Degree Days 32 (Base 50)    
Moisture  
Dew Point 76 °F    
Average Humidity 85    
Maximum Humidity 100    
Minimum Humidity 60    
Precipitation  
Precipitation 0.63 in - - ()
Sea Level Pressure  
Sea Level Pressure 29.90 in    
Wind  
Wind Speed 7 mph ()    
Max Wind Speed 21 mph    
Max Gust Speed -    
Visibility 6.8 miles    
Events Rain    
Averages and records for this station are not official NWS values.
T = Trace of Precipitation, MM = Missing Value Source: Averaged Metar Reports

Daily Weather History Graph

Daily Weather History Graph

Search for Another Location

Airport or City:

Trip Planner

Search our weather history database for the weather conditions in past years. The results will help you decide how hot, cold, wet, or windy it might be!

Date:

Astronomy

Nov. 24, 2011 Rise Set
Actual Time 6:34 AM AST 6:04 PM AST
Civil Twilight 6:11 AM AST 6:27 PM AST
Nautical Twilight 5:45 AM AST 6:53 PM AST
Astronomical Twilight 5:20 AM AST 7:19 PM AST
Moon 5:46 AM AST (11/24) 5:37 PM AST (11/24)
Length of Visible Light 12h 15m
Length of Day
11h 30m
Waning Crescent, 1% of the Moon is Illuminated
Nov 24
Waning Crescent
Nov 25
New
Dec 2
First Quarter
Dec 10
Full
Dec 17
Last Quarter

Hourly Weather History & Observations

Time (AST) Temp. Heat Index Dew Point Humidity Pressure Visibility Wind Dir Wind Speed Gust Speed Precip Events Conditions
12:00 AM 80.6 °F 87.1 °F 77.0 °F 89% 29.92 in - North - - N/A   Unknown
1:00 AM 80.6 °F 86.2 °F 75.2 °F 84% 29.92 in - North - - N/A   Unknown
2:00 AM 80 °F - 76 °F 82%  in 6 mi Calm Calm - -   Clear
2:00 AM 80.6 °F 86.2 °F 75.2 °F 84% 29.89 in - North - - N/A   Unknown
3:00 AM 80.6 °F 86.2 °F 75.2 °F 84% 29.89 in - North - - N/A   Unknown
6:00 AM 78.8 °F - 75.2 °F 89% 29.89 in - North - - N/A   Unknown
7:00 AM 78.8 °F - 75.2 °F 89% 29.89 in - North - - N/A   Unknown
8:00 AM 83 °F - 74 °F 67% 29.93 in 25 mi East 10.4 mph - -   Scattered Clouds
8:00 AM 84.2 °F 94.1 °F 77.0 °F 79% 29.92 in 6.2 mi East 9.2 mph - N/A   Partly Cloudy
11:00 AM 87 °F - 75 °F 60% 29.95 in 25 mi East 12.7 mph - - Rain Light Rain Showers
1:00 PM 78.8 °F - 75.2 °F 89% 29.92 in 6.2 mi ESE 20.7 mph - N/A Rain Rain
2:00 PM 76 °F - 76 °F 100% 29.90 in 12 mi ENE 9.2 mph - - Rain Light Rain Showers
3:00 PM 80.6 °F 87.1 °F 77.0 °F 89% 29.86 in 6.2 mi East 8.1 mph - N/A   Scattered Clouds
4:00 PM 82.4 °F 90.9 °F 77.0 °F 84% 29.86 in 6.2 mi East 6.9 mph - N/A   Partly Cloudy
5:00 PM 80.6 °F 87.1 °F 77.0 °F 89% 29.86 in 6.2 mi East 6.9 mph - N/A   Scattered Clouds
6:00 PM 80.6 °F 87.1 °F 77.0 °F 89% 29.83 in 6.2 mi East 9.2 mph - N/A   Scattered Clouds
7:00 PM 80.6 °F 87.1 °F 77.0 °F 89% 29.86 in - North - - N/A   Unknown
8:00 PM 80.6 °F 87.1 °F 77.0 °F 89% 29.89 in - North - - N/A   Unknown
9:00 PM 80.6 °F 86.2 °F 75.2 °F 84% 29.92 in - North - - N/A   Unknown
10:00 PM 80.6 °F 86.2 °F 75.2 °F 84% 29.95 in - North - - N/A   Unknown
11:00 PM 81 °F - 76 °F 81%  in 6 mi Calm Calm - -   Clear
11:00 PM 80.6 °F 87.1 °F 77.0 °F 89% 29.95 in - North - - N/A   Unknown